TimeEST,TemperatureF,Dew PointF,Humidity,Sea Level PressureIn,VisibilityMPH,Wind Direction,Wind SpeedMPH,Gust SpeedMPH,PrecipitationIn,Events,Conditions,WindDirDegrees,DateUTC
12:53 AM,10.0,-7.1,46,30.43,10.0,NW,8.1,-,N/A,,Overcast,320,2013-02-07 05:53:00
1:53 AM,8.1,-5.1,55,30.45,10.0,North,11.5,-,N/A,,Clear,350,2013-02-07 06:53:00
2:53 AM,6.1,-7.1,55,30.46,10.0,North,12.7,-,N/A,,Clear,360,2013-02-07 07:53:00
3:53 AM,5.0,-8.0,55,30.49,10.0,North,10.4,-,N/A,,Clear,350,2013-02-07 08:53:00
4:53 AM,3.9,-8.0,58,30.52,10.0,North,10.4,-,N/A,,Clear,350,2013-02-07 09:53:00
5:53 AM,1.9,-9.0,60,30.54,10.0,NNW,9.2,-,N/A,,Clear,340,2013-02-07 10:53:00
6:53 AM,1.0,-9.9,60,30.56,10.0,NNW,9.2,-,N/A,,Clear,340,2013-02-07 11:53:00
7:53 AM,1.0,-9.0,63,30.60,10.0,North,11.5,-,N/A,,Clear,360,2013-02-07 12:53:00
8:53 AM,1.9,-8.0,63,30.61,10.0,North,10.4,-,N/A,,Clear,10,2013-02-07 13:53:00
9:53 AM,3.0,-9.0,57,30.63,10.0,North,8.1,-,N/A,,Scattered Clouds,10,2013-02-07 14:53:00
10:45 AM,3.2,-7.6,61,30.62,10.0,NE,8.1,-,N/A,,Mostly Cloudy,40,2013-02-07 15:45:00
10:53 AM,3.9,-7.1,60,30.64,10.0,ENE,4.6,-,N/A,,Scattered Clouds,60,2013-02-07 15:53:00
11:53 AM,3.9,-6.0,64,30.62,10.0,NE,6.9,-,N/A,,Partly Cloudy,50,2013-02-07 16:53:00
12:53 PM,6.1,-6.0,58,30.60,10.0,NE,6.9,-,N/A,,Overcast,40,2013-02-07 17:53:00
1:53 PM,7.0,-6.0,55,30.58,10.0,Variable,4.6,-,N/A,,Overcast,0,2013-02-07 18:53:00
2:53 PM,7.0,-6.0,55,30.57,10.0,NE,6.9,-,N/A,,Overcast,40,2013-02-07 19:53:00
3:53 PM,7.0,-6.0,55,30.56,10.0,NNE,9.2,-,N/A,,Overcast,20,2013-02-07 20:53:00
4:53 PM,7.0,-8.0,51,30.56,10.0,North,6.9,-,N/A,,Overcast,350,2013-02-07 21:53:00
5:53 PM,7.0,-7.1,53,30.56,10.0,North,6.9,-,N/A,,Overcast,10,2013-02-07 22:53:00
6:53 PM,7.0,-7.1,53,30.55,10.0,North,6.9,-,N/A,,Overcast,350,2013-02-07 23:53:00
7:53 PM,6.1,-8.0,53,30.54,10.0,North,4.6,-,N/A,,Overcast,350,2013-02-08 00:53:00
8:53 PM,6.1,-6.0,58,30.53,10.0,North,4.6,-,N/A,,Overcast,360,2013-02-08 01:53:00
9:53 PM,6.1,-7.1,55,30.51,10.0,NNW,3.5,-,N/A,,Overcast,340,2013-02-08 02:53:00
10:53 PM,7.0,-6.0,55,30.48,10.0,North,4.6,-,N/A,,Overcast,350,2013-02-08 03:53:00
11:53 PM,6.1,-6.0,58,30.46,10.0,North,3.5,-,N/A,,Overcast,360,2013-02-08 04:53:00